KS4XQ Weather Reports


Display with metric or nautical units.
time (UTC)temp
F
wind
direction
speed
MPH
gust
MPH
rain 1hr
in
rain 24hr
in
rain mn
in
humidity
%
barometer
mb
20260510064500 58 257 0.0 0.0 0.00 0.00 0.00 93 1013.1
20260510063500 58 257 0.0 0.0 0.00 0.00 0.00 93 1013.0
20260510063000 58 257 0.0 0.0 0.00 0.00 0.00 93 1013.0
20260510062500 58 257 0.0 0.0 0.00 0.00 0.00 94 1013.1
20260510062002 58 257 0.0 0.0 0.00 0.00 0.00 94 1013.1
20260510061501 58 257 0.0 0.0 0.00 0.00 0.00 94 1013.0
20260510060500 59 257 0.0 0.0 0.00 0.00 0.00 94 1013.1
20260510055500 59 257 0.0 0.0 0.00 0.00 0.00 93 1013.1
20260510055000 59 257 0.0 0.0 0.00 0.00 0.00 93 1013.1
20260510054500 59 257 0.0 0.0 0.00 0.00 0.00 93 1013.1
20260510054002 59 257 0.0 0.0 0.00 0.00 0.00 93 1013.2
20260510053500 59 257 0.0 0.0 0.00 0.00 0.00 94 1013.3
20260510052501 59 257 0.0 3.0 0.00 0.00 0.00 94 1013.3
20260510052002 59 273 1.0 4.0 0.00 0.00 0.00 94 1013.4
20260510051000 59 283 1.0 4.0 0.00 0.00 0.00 93 1013.5
20260510050500 59 232 0.0 2.0 0.00 0.00 0.00 93 1013.5
20260510050004 59 232 0.0 1.0 0.00 0.00 0.00 92 1013.5
20260510045000 59 302 0.0 0.0 0.00 0.00 0.00 92 1013.4
20260510044002 59 302 0.0 0.0 0.00 0.00 0.00 91 1013.3
20260510043000 59 302 0.0 0.0 0.00 0.00 0.00 91 1013.5
20260510042000 60 302 0.0 0.0 0.00 0.00 0.00 91 1013.3
20260510041002 60 302 0.0 0.0 0.00 0.00 0.00 91 1013.4
20260510040501 60 302 0.0 0.0 0.00 0.00 0.00 91 1013.4
20260510040007 60 302 0.0 0.0 0.00 0.00 0.00 91 1013.3
20260510035505 60 302 0.0 0.0 0.00 0.00 0.00 90 1013.3
20260510035003 61 302 0.0 0.0 0.00 0.00 0.00 90 1013.4
20260510034503 61 302 0.0 0.0 0.00 0.00 0.00 90 1013.2
20260510034004 61 302 0.0 0.0 0.00 0.00 0.00 90 1013.2
20260510033503 61 302 0.0 0.0 0.00 0.00 0.00 90 1013.3
20260510033005 61 302 0.0 0.0 0.00 0.00 0.00 90 1013.4
20260510032503 61 302 0.0 1.0 0.00 0.00 0.00 90 1013.3
20260510032003 61 302 0.0 2.0 0.00 0.00 0.00 90 1013.2
20260510031503 61 302 0.0 2.0 0.00 0.00 0.00 91 1013.2
20260510031005 62 302 0.0 0.0 0.00 0.00 0.00 91 1013.2
20260510030005 62 302 0.0 0.0 0.00 0.00 0.00 88 1013.2
20260510025505 62 302 0.0 0.0 0.00 0.00 0.00 87 1013.2
20260510025003 62 302 0.0 0.0 0.00 0.00 0.00 87 1013.1
20260510024503 62 302 0.0 0.0 0.00 0.00 0.00 87 1013.2
20260510024004 63 302 0.0 0.0 0.00 0.00 0.00 87 1013.2
20260510023003 63 302 0.0 2.0 0.00 0.00 0.00 86 1013.2
20260510022005 63 318 0.0 1.0 0.00 0.00 0.00 86 1013.0
20260510021503 63 318 0.0 1.0 0.00 0.00 0.00 86 1012.9
20260510020503 64 318 0.0 0.0 0.00 0.00 0.00 87 1012.8
20260510020008 64 318 0.0 2.0 0.00 0.00 0.00 87 1012.7
20260510015503 64 318 0.0 2.0 0.00 0.00 0.00 85 1012.7
20260510014504 64 213 1.0 3.0 0.00 0.00 0.00 85 1012.6
20260510014002 64 221 1.0 5.0 0.00 0.00 0.00 85 1012.5
20260510013503 65 292 1.0 3.0 0.00 0.00 0.00 85 1012.4
20260510012505 65 283 1.0 3.0 0.00 0.00 0.00 84 1012.4
20260510012003 65 255 0.0 3.0 0.00 0.00 0.00 84 1012.4
20260510011502 65 325 1.0 3.0 0.00 0.00 0.00 83 1012.4
20260510011003 65 288 1.0 3.0 0.00 0.00 0.00 83 1012.3
20260510010504 66 289 0.0 3.0 0.00 0.00 0.00 82 1012.2
20260510005503 66 263 0.0 1.0 0.00 0.00 0.00 82 1012.3
20260510005004 66 273 0.0 2.0 0.00 0.00 0.00 82 1012.2
20260510004503 66 273 1.0 2.0 0.00 0.00 0.00 82 1012.2
20260510004003 66 265 2.0 3.0 0.00 0.00 0.00 82 1012.2
20260510003503 67 285 2.0 4.0 0.00 0.00 0.00 81 1012.1
20260510003004 67 280 2.0 4.0 0.00 0.00 0.00 81 1012.1
20260510002503 67 287 1.0 3.0 0.00 0.00 0.00 81 1012.1
20260510002003 67 286 0.0 2.0 0.00 0.00 0.00 80 1011.9
20260510001005 68 238 0.0 2.0 0.00 0.00 0.00 79 1011.8
20260510000503 68 238 0.0 2.0 0.00 0.00 0.00 79 1011.6
20260510000006 68 311 0.0 2.0 0.00 0.00 0.00 79 1011.5
20260509235504 68 270 0.0 2.0 0.00 0.00 0.00 79 1011.5
20260509234503 69 264 0.0 3.0 0.00 0.00 0.00 78 1011.2
20260509234002 69 207 0.0 3.0 0.00 0.00 0.00 78 1011.1
20260509233003 69 214 1.0 4.0 0.00 0.00 0.00 77 1011.1
20260509232503 70 171 1.0 4.0 0.00 0.00 0.00 77 1011.0
20260509232004 70 290 1.0 3.0 0.00 0.00 0.00 77 1010.9
20260509231503 70 274 1.0 3.0 0.00 0.00 0.00 76 1011.0
20260509230503 70 119 1.0 3.0 0.00 0.00 0.00 76 1010.7
20260509225501 70 249 1.0 3.0 0.00 0.00 0.00 76 1011.0
20260509225001 70 292 1.0 3.0 0.00 0.00 0.00 76 1011.0
20260509224501 70 246 1.0 3.0 0.00 0.00 0.00 75 1010.9
20260509224004 70 241 1.0 4.0 0.00 0.00 0.00 75 1010.9
20260509223502 70 168 1.0 3.0 0.00 0.00 0.00 75 1010.9
20260509223001 71 165 1.0 4.0 0.00 0.00 0.00 75 1010.9
20260509222005 71 167 1.0 6.0 0.00 0.00 0.00 75 1010.9
20260509221502 71 281 2.0 6.0 0.00 0.00 0.00 74 1010.7
20260509221002 71 217 3.0 9.0 0.00 0.00 0.00 74 1010.7
20260509220502 71 259 3.0 9.0 0.00 0.00 0.00 73 1010.7
20260509220006 71 141 3.0 11.0 0.00 0.00 0.00 73 1010.6
20260509215001 71 266 3.0 11.0 0.00 0.00 0.00 72 1010.6
20260509214505 71 261 2.0 9.0 0.00 0.00 0.00 73 1010.5
20260509214002 71 176 4.0 11.0 0.00 0.00 0.00 72 1010.4
20260509213502 71 355 4.0 11.0 0.00 0.00 0.00 73 1010.3
20260509213004 71 279 3.0 10.0 0.00 0.00 0.00 71 1010.3
20260509212502 72 242 3.0 10.0 0.00 0.00 0.00 71 1010.3
20260509211502 72 290 2.0 5.0 0.00 0.00 0.00 72 1010.3
20260509211003 72 229 2.0 8.0 0.00 0.00 0.00 72 1010.3
20260509210004 73 296 2.0 8.0 0.00 0.00 0.00 70 1010.3
20260509205503 73 268 2.0 6.0 0.00 0.00 0.00 72 1010.1
20260509205002 72 219 2.0 8.0 0.00 0.00 0.00 72 1010.0
20260509204502 72 118 3.0 8.0 0.00 0.00 0.00 71 1010.2
20260509204002 73 274 3.0 14.0 0.00 0.00 0.00 70 1010.4
20260509203504 73 192 3.0 14.0 0.00 0.00 0.00 70 1010.3
20260509203002 74 263 3.0 9.0 0.00 0.00 0.00 69 1010.2
20260509202502 75 153 2.0 9.0 0.00 0.00 0.00 68 1010.4
20260509202002 75 227 2.0 5.0 0.00 0.00 0.00 68 1010.6
20260509201503 75 206 1.0 7.0 0.00 0.00 0.00 69 1010.4
20260509201002 75 220 3.0 10.0 0.00 0.00 0.00 68 1010.5
20260509200501 75 295 3.0 10.0 0.00 0.00 0.00 66 1010.6
20260509200004 75 298 3.0 10.0 0.00 0.00 0.00 67 1010.6
20260509195504 75 291 3.0 10.0 0.00 0.00 0.00 67 1010.5
20260509194502 74 255 2.0 8.0 0.00 0.00 0.00 73 1010.6
20260509194002 73 216 3.0 10.0 0.00 0.00 0.00 71 1010.7
20260509193003 73 290 2.0 9.0 0.00 0.00 0.00 71 1010.8
20260509192502 73 288 2.0 4.0 0.00 0.00 0.00 71 1010.8
20260509191002 73 300 2.0 9.0 0.00 0.00 0.00 72 1010.9
20260509190006 73 273 1.0 5.0 0.00 0.00 0.00 72 1010.7
20260509184502 72 172 2.0 7.0 0.00 0.00 0.00 74 1010.9
20260509184004 72 267 2.0 5.0 0.00 0.00 0.00 76 1010.9
20260509183002 71 5 3.0 10.0 0.00 0.00 0.00 73 1011.0
20260509182502 71 296 2.0 10.0 0.00 0.00 0.00 74 1011.1
20260509182002 71 298 2.0 5.0 0.00 0.00 0.00 74 1011.0
20260509181504 71 286 3.0 10.0 0.00 0.00 0.00 75 1011.0
20260509181002 71 292 3.0 10.0 0.00 0.00 0.00 74 1011.1
20260509180502 71 273 3.0 7.0 0.00 0.00 0.00 74 1011.1
20260509180006 71 305 3.0 9.0 0.00 0.00 0.00 75 1011.2
20260509175502 71 259 3.0 9.0 0.00 0.00 0.00 75 1011.2
20260509175002 70 286 3.0 8.0 0.00 0.00 0.00 77 1011.3
20260509174503 70 301 3.0 9.0 0.00 0.00 0.00 75 1011.3
20260509174003 70 41 4.0 12.0 0.00 0.00 0.00 76 1011.3
20260509173502 70 243 3.0 9.0 0.00 0.00 0.00 76 1011.3
20260509173002 69 275 3.0 7.0 0.00 0.00 0.00 78 1011.4
20260509172502 69 213 3.0 8.0 0.00 0.00 0.00 78 1011.5
20260509171502 68 291 2.0 7.0 0.00 0.00 0.00 80 1011.7
20260509171002 67 287 2.0 7.0 0.00 0.00 0.00 82 1012.0
20260509170502 67 286 1.0 4.0 0.00 0.00 0.00 82 1012.1
20260509170005 67 5 1.0 7.0 0.00 0.00 0.00 83 1012.1
20260509165502 66 284 1.0 7.0 0.00 0.00 0.00 82 1012.1
20260509165002 66 315 2.0 6.0 0.00 0.00 0.00 83 1012.2
20260509164502 66 286 2.0 7.0 0.00 0.00 0.00 82 1012.2
20260509163502 66 176 1.0 4.0 0.00 0.00 0.00 83 1012.1
20260509163001 66 271 0.0 3.0 0.00 0.00 0.00 83 1012.3
20260509162502 65 271 1.0 3.0 0.00 0.00 0.00 83 1012.4
20260509162003 65 171 1.0 4.0 0.00 0.00 0.00 84 1012.4
20260509161502 65 332 1.0 4.0 0.00 0.00 0.00 84 1012.4
20260509161002 64 244 1.0 3.0 0.00 0.00 0.00 84 1012.4
20260509160501 64 280 0.0 3.0 0.00 0.00 0.00 85 1012.4
20260509155501 64 223 1.0 3.0 0.00 0.00 0.00 85 1012.7
20260509155002 64 284 2.0 4.0 0.00 0.00 0.00 84 1012.7
20260509154500 63 201 2.0 6.0 0.00 0.00 0.00 85 1012.8
20260509154001 63 288 2.0 6.0 0.00 0.00 0.00 84 1012.8
20260509153501 63 288 1.0 6.0 0.00 0.00 0.00 85 1012.9
20260509153002 63 279 1.0 4.0 0.00 0.00 0.00 85 1013.0
20260509152500 63 289 1.0 4.0 0.00 0.00 0.00 84 1012.9
20260509152001 63 286 0.0 3.0 0.00 0.00 0.00 85 1012.8
20260509151501 63 290 0.0 3.0 0.00 0.00 0.00 85 1012.7
20260509151002 63 269 0.0 2.0 0.00 0.00 0.00 85 1012.7
20260509150501 63 269 0.0 2.0 0.00 0.00 0.00 85 1012.7
20260509145501 63 260 0.0 3.0 0.00 0.00 0.00 86 1012.8
20260509145003 63 206 1.0 2.0 0.00 0.00 0.00 85 1012.6
20260509144001 63 290 1.0 3.0 0.00 0.00 0.00 85 1012.6
20260509143501 63 279 1.0 3.0 0.00 0.00 0.00 85 1012.5
20260509143003 63 290 1.0 3.0 0.00 0.00 0.00 85 1012.4
20260509142501 63 268 1.0 3.0 0.00 0.00 0.00 85 1012.3
20260509142001 63 265 1.0 3.0 0.00 0.00 0.00 86 1012.2
20260509141501 62 341 1.0 3.0 0.00 0.00 0.00 85 1012.1
20260509141003 62 285 1.0 4.0 0.00 0.00 0.00 85 1012.1
20260509140501 62 287 2.0 6.0 0.00 0.00 0.00 85 1012.1
20260509135502 62 170 1.0 4.0 0.00 0.00 0.00 88 1012.1
20260509135001 62 282 1.0 3.0 0.00 0.00 0.00 89 1012.2
20260509134500 61 282 1.0 3.0 0.00 0.00 0.00 90 1012.2
20260509134000 61 282 1.0 2.0 0.00 0.00 0.00 91 1012.0
20260509133502 61 181 0.0 2.0 0.00 0.00 0.00 92 1012.0
20260509133001 60 298 0.0 2.0 0.00 0.00 0.00 92 1011.9
20260509132501 60 298 0.0 2.0 0.00 0.00 0.00 93 1012.0
20260509131501 59 212 0.0 2.0 0.00 0.00 0.00 94 1012.2
20260509125501 58 188 0.0 3.0 0.00 0.00 0.00 96 1012.3
20260509124501 57 203 0.0 3.0 0.00 0.00 0.00 96 1012.6
20260509124003 57 297 0.0 2.0 0.00 0.00 0.00 97 1012.7
20260509123000 56 258 0.0 0.0 0.00 0.00 0.00 97 1012.7
20260509122501 56 258 0.0 0.0 0.00 0.00 0.00 97 1012.8
20260509121501 55 258 0.0 0.0 0.00 0.00 0.00 97 1012.9
20260509121001 55 258 0.0 0.0 0.00 0.00 0.00 96 1012.7
20260509120502 55 258 0.0 0.0 0.00 0.00 0.00 97 1012.9
20260509120003 55 258 0.0 0.0 0.00 0.00 0.00 97 1013.0
20260509115501 55 258 0.0 0.0 0.00 0.00 0.00 97 1012.9
20260509115002 55 258 0.0 0.0 0.00 0.00 0.00 97 1012.8
20260509114501 54 258 0.0 0.0 0.00 0.00 0.00 97 1012.8
20260509114001 54 258 0.0 0.0 0.00 0.00 0.00 97 1012.6
20260509113500 54 258 0.0 0.0 0.00 0.00 0.00 97 1012.2
20260509112503 53 258 0.0 0.0 0.00 0.00 0.00 96 1012.4
20260509112000 53 258 0.0 0.0 0.00 0.00 0.00 96 1012.4
20260509111501 53 258 0.0 0.0 0.00 0.00 0.00 96 1012.6
20260509111002 53 258 0.0 0.0 0.00 0.00 0.00 96 1012.5
20260509110501 53 258 0.0 0.0 0.00 0.00 0.00 96 1012.5
20260509105503 53 258 0.0 0.0 0.00 0.00 0.00 96 1012.4
20260509104501 53 258 0.0 0.0 0.00 0.00 0.00 96 1012.4
20260509104001 53 258 0.0 0.0 0.00 0.00 0.00 96 1012.3
20260509103502 52 258 0.0 0.0 0.00 0.00 0.00 96 1012.3
20260509103001 52 258 0.0 0.0 0.00 0.00 0.00 96 1012.4
20260509102003 52 258 0.0 0.0 0.00 0.00 0.00 96 1012.6
20260509101501 52 258 0.0 0.0 0.00 0.00 0.00 95 1012.6
20260509101002 52 258 0.0 0.0 0.00 0.00 0.00 95 1012.5
20260509100501 52 258 0.0 0.0 0.00 0.00 0.00 95 1012.5
20260509100005 52 258 0.0 0.0 0.00 0.00 0.00 95 1012.4
20260509095501 52 258 0.0 0.0 0.00 0.00 0.00 96 1012.3
20260509095001 52 258 0.0 0.0 0.00 0.00 0.00 96 1012.2
20260509094502 52 258 0.0 0.0 0.00 0.00 0.00 95 1012.2
20260509094000 52 258 0.0 0.0 0.00 0.00 0.00 95 1012.4
20260509093501 52 258 0.0 0.0 0.00 0.00 0.00 96 1012.4
20260509093002 51 258 0.0 0.0 0.00 0.00 0.00 95 1012.2
20260509092500 51 258 0.0 0.0 0.00 0.00 0.00 94 1012.0
20260509092002 51 258 0.0 0.0 0.00 0.00 0.00 94 1012.0
20260509091500 51 258 0.0 0.0 0.00 0.00 0.00 94 1012.0
20260509091000 51 258 0.0 0.0 0.00 0.00 0.00 94 1012.0
20260509090500 51 258 0.0 0.0 0.00 0.00 0.00 94 1011.8
20260509090006 51 258 0.0 0.0 0.00 0.00 0.00 94 1011.9
20260509085501 51 258 0.0 0.0 0.00 0.00 0.00 95 1012.0
20260509085000 51 258 0.0 0.0 0.00 0.00 0.00 95 1012.2
20260509084502 51 258 0.0 0.0 0.00 0.00 0.00 95 1012.2
20260509084000 50 258 0.0 0.0 0.00 0.00 0.00 94 1011.8
20260509083500 50 258 0.0 0.0 0.00 0.00 0.00 92 1011.8
20260509083002 50 258 0.0 0.0 0.00 0.00 0.00 92 1011.7
20260509082501 50 258 0.0 0.0 0.00 0.00 0.00 92 1011.7
20260509081501 51 258 0.0 0.0 0.00 0.00 0.00 92 1011.7
20260509081003 51 258 0.0 0.0 0.00 0.00 0.00 92 1011.6
20260509080500 51 258 0.0 0.0 0.00 0.00 0.00 92 1011.8
20260509080003 51 258 0.0 0.0 0.00 0.00 0.00 93 1011.9
20260509075500 51 258 0.0 0.0 0.00 0.00 0.00 94 1012.0
20260509075002 51 258 0.0 0.0 0.00 0.00 0.00 93 1012.0
20260509074002 51 258 0.0 0.0 0.00 0.00 0.00 92 1011.9
20260509073001 51 258 0.0 0.0 0.00 0.00 0.00 93 1011.9
20260509072501 51 258 0.0 0.0 0.00 0.00 0.00 92 1011.8
20260509072002 51 258 0.0 0.0 0.00 0.00 0.00 91 1011.8
20260509071501 51 258 0.0 0.0 0.00 0.00 0.00 91 1011.9
20260509070501 52 258 0.0 0.0 0.00 0.00 0.00 90 1012.3
20260509070005 52 258 0.0 0.0 0.00 0.00 0.00 90 1012.4
20260509065500 52 258 0.0 0.0 0.00 0.00 0.00 90 1012.6